Location: Zlin
(49.2330°N, 17.6670°E)
Time: 16:06:14
(UTC+02:00)

ISS - Visible Passes

Search period start: 22 May 2018 00:00
Search period end: 01 June 2018 00:00
Orbit: 402 x 407 km, 51.6° (Epoch: 23 May)

Date Brightness Start Highest point End Pass type
(mag) Time Alt. Az. Time Alt. Az. Time Alt. Az.
22 May -3.3 01:31:01 10° WNW 01:34:15 60° N 01:37:30 10° E visible
22 May -3.7 03:07:35 10° WNW 03:10:44 48° SSW 03:13:54 10° SE visible
22 May -2.9 21:26:13 10° SSW 21:29:04 27° SE 21:31:55 10° E visible
22 May -3.8 23:02:04 10° WSW 23:05:21 78° NNW 23:08:37 10° ENE visible
23 May -3.1 00:38:49 10° WNW 00:42:02 54° N 00:45:15 10° E visible
23 May -4.0 02:15:23 10° WNW 02:18:38 73° SSW 02:21:54 10° ESE visible
23 May -2.2 03:52:34 10° W 03:54:42 16° SW 03:56:49 10° S visible
23 May -4.0 22:09:54 10° WSW 22:13:10 77° SSE 22:16:26 10° ENE visible
23 May -3.1 23:46:34 10° W 23:49:48 53° N 23:53:01 10° ENE visible
24 May -3.8 01:23:11 10° WNW 01:26:29 81° NNE 01:27:56 30° ESE visible
24 May -1.5 02:59:57 10° W 03:07:35 - SE 03:00:21 12° W visible
24 May -3.7 21:17:52 10° SW 21:21:03 51° SSE 21:24:14 10° ENE visible
24 May -3.2 22:54:18 10° W 22:57:32 59° N 23:00:47 10° ENE visible
25 May -3.5 00:31:00 10° WNW 00:34:15 64° N 00:35:45 29° E visible
25 May -1.6 02:07:34 10° WNW 02:08:20 15° W 02:08:20 15° W visible
25 May -3.6 22:02:02 10° W 22:05:18 71° NNW 22:08:34 10° ENE visible
25 May -3.2 23:38:46 10° WNW 23:42:00 55° N 23:44:41 14° E visible
26 May -2.7 01:15:19 10° WNW 01:17:17 32° W 01:17:17 32° W visible
26 May -3.1 22:46:31 10° W 22:49:44 53° N 22:52:56 10° ENE visible
27 May -4.0 00:23:06 10° WNW 00:26:23 90° ENE 00:26:28 85° ESE visible
27 May -3.1 21:54:12 10° W 21:57:27 56° N 22:00:40 10° ENE visible
27 May -3.6 23:30:52 10° WNW 23:34:09 69° NNE 23:35:45 27° E visible
28 May -1.6 01:07:29 10° W 01:08:22 16° W 01:08:22 16° W visible
28 May -3.3 22:38:37 10° WNW 22:41:52 58° N 22:45:05 10° E visible
29 May -3.2 00:15:10 10° WNW 00:17:43 44° WSW 00:17:43 44° WSW visible
29 May -3.1 21:46:19 10° WNW 21:49:32 53° N 21:52:46 10° E visible
29 May -4.0 23:22:54 10° WNW 23:26:10 81° SSW 23:27:05 44° ESE visible
30 May -3.7 22:30:37 10° WNW 22:33:55 75° NNE 22:36:29 15° E visible
31 May -2.2 00:07:18 10° W 00:09:06 23° WSW 00:09:06 23° WSW visible
31 May -3.3 21:38:20 10° WNW 21:41:36 61° N 21:44:50 10° E visible
31 May -3.5 23:14:53 10° WNW 23:18:03 46° SSW 23:18:32 42° S visible
